SCP
-0 -0 -0 -0 -0 -0 -0 -0 -0 -0 -0 -0 -0 -0 -0 0 -0 -0 -0 0 0 -0 0 0 -0 -0 -0 0 0 0 0 -0 0 0 0 0 0 0 0 0 0 0 0 0 0
-0 -0 -0 -0 -0 -0 0 0 0 0 0 -0 -0 -0 -0 -0 -0 -0 0 0 0 -0 -0 0 0 -0 0 0 0 0 0 0 0 0 0 0 0 0 0 0 0 0 0 0 0
-0 -0 -0 -0 -0 -0 -0 0 0 0 -0 -0 -0 -0 -0 -0 -0 -0 -0 -0 -0 -0 -0 0 -0 -0 0 0 0 0 0 0 0 0 0 0 0 0 0 0 0 0 0 0 0
-0 -0 -0 -0 -0 -0 -0 -0 -0 -0 -0 -0 -0 -0 -0 -0 -0 -0 -0 -0 -0 -0 -0 0 0 -0 0 0 0 0 0 0 0 0 0 0 0 0 0 0 0 0 0 0 0
-0 -0 -0 -0 -0 -0 -0 -0 -0 -0 -0 -0 -0 -0 -0 -0 -0 -0 -0 -0 -0 0 -0 0 -0 -0 0 0 0 0 0 0 0 0 0 0 -0 0 0 0 0 0 0 0 0
-0 -0 -0 -0 -0 -0 -0 -0 -0 -0 -0 -0 -0 -0 -0 -0 0 -0 -0 -0 0 0 -0 -0 -0 -0 0 0 0 0 0 0 0 0 0 0 -0 0 -0 0 0 0 0 0 0
0 -0 -0 -0 -0 -0 -0 -0 -0 -0 -0 -0 -0 -0 0 -0 -0 -0 -0 -0 -0 -0 0 -0 0 -0 0 0 0 0 -0 0 0 0 -0 0 -0 0 0 0 0 0 0 0 0
0 0 -0 -0 -0 -0 -0 -0 -0 -0 -0 -0 0 0 0 -0 -0 -0 -0 0 -0 -0 -0 -0 -0 0 -0 0 0 -0 -0 -0 0 0 0 0 -0 0 0 0 0 0 0 0 0
-0 0 0 0 -0 -0 -0 -0 0 0 -0 0 -0 -0 0 0 -0 0 -0 0 -0 -0 -0 -0 -0 -0 0 -0 0 0 0 0 0 0 0 0 0 0 0 0 0 0 0 0 0
-0 -0 -0 -0 -0 0 -0 -0 -0 -0 -0 -0 -0 -0 0 0 0 -0 -0 -0 -0 -0 0 -0 -0 -0 -0 0 0 0 0 0 0 0 0 0 0 0 0 0 0 0 0 0 0
-0 -0 -0 -0 -0 -0 -0 0 0 0 -0 0 0 0 0 0 -0 -0 -0 -0 -0 -0 0 -0 -0 0 0 0 0 0 0 0 0 0 0 0 0 0 0 0 0 0 0 0 0
-0 0 0 -0 -0 -0 -0 -0 0 0 0 0 0 0 0 0 0 0 -0 -0 -0 0 -0 -0 0 0 0 0 0 0 0 0 0 0 0 0 0 0 0 0 0 0 0 0 0
-0 0 0 0 0 -0 0 0 -0 -0 -0 0 0 0 0 -0 0 0 -0 0 -0 -0 0 0 0 0 0 0 0 0 0 0 0 0 0 0 0 0 0 0 0 0 0 0 0
-0 0 0 0 -0 -0 0 -0 -0 -0 -0 0 0 0 0 0 0 0 0 -0 0 0 0 0 0 0 0 0 0 0 0 0 0 0 0 0 0 0 0 0 0 0 0 0 0
-0 0 -0 -0 -0 0 -0 -0 -0 -0 0 0 0 0 0 -0 0 0 0 0 -0 0 0 0 0 0 0 0 0 0 0 0 0 0 0 -0 0 0 0 0 0 0 0 0 0
-0 0 -0 0 0 0 -0 -0 -0 0 0 0 0 0 0 0 0 0 0 0 0 0 0 0 0 0 0 0 0 0 0 0 0 0 0 0 0 0 0 0 0 0 0 0 0
-0 -0 -0 -0 -0 -0 -0 -0 0 0 0 0 0 0 0 0 0 0 0 0 0 0 0 0 0 0 0 0 0 0 0 0 0 0 0 0 0 0 0 0 0 0 0 0 0
-0 -0 0 0 -0 -0 -0 0 -0 0 0 0 0 0 0 0 0 0 0 0 0 0 0 0 0 0 0 0 0 0 0 0 0 0 0 0 0 0 0 0 0 0 0 0 0
0 0 0 0 0 -0 -0 -0 0 0 0 0 0 -0 -0 0 0 0 0 0 0 0 0 0 0 0 0 0 0 0 0 0 0 0 0 0 0 0 0 0 0 0 0 0 0
-0 0 0 0 0 0 0 0 0 0 0 0 -0 0 0 0 0 0 0 0 0 0 0 0 0 0 0 0 0 0 0 0 0 0 0 0 0 0 0 0 0 0 0 0 0
-0 0 0 0 0 0 0 0 0 0 0 0 0 0 0 0 0 0 0 0 0 0 0 0 0 0 0 0 0 0 0 0 0 0 0 0 0 0 0 0 0 0 0 0 0
0 0 0 0 -0 0 0 0 0 0 0 0 0 0 0 0 0 0 0 0 0 0 0 0 0 0 0 0 0 0 0 0 0 0 0 0 0 0 0 0 0 0 -0 0 0
0 0 0 -0 0 0 0 0 0 0 0 0 0 0 0 0 0 0 0 0 0 0 0 0 0 0 0 0 0 0 0 0 0 0 0 0 0 0 0 0 0 0 0 0 0
-0 0 0 0 0 0 0 0 0 0 0 0 0 0 0 0 0 0 0 0 0 0 0 0 0 0 0 0 0 0 0 0 0 0 0 0 0 0 0 0 0 0 0 0 0
0 0 0 0 0 0 0 0 0 0 0 0 0 0 0 0 0 0 0 0 0 0 0 0 0 0 0 0 0 0 0 0 0 0 0 0 0 0 0 0 0 0 0 0 0
0 0 0 0 0 0 0 0 0 0 0 0 0 0 0 0 0 0 0 0 0 0 0 0 0 0 0 0 0 0 0 0 0 0 0 0 0 0 0 0 0 0 0 0 0
0 0 0 0 0 0 0 0 0 0 0 0 0 0 0 0 0 0 0 0 0 0 0 0 0 0 0 0 0 0 0 0 0 0 0 0 0 0 0 0 0 0 0 -0 0
Wind_Speed_500mb
11 12 12 12 10 10 15 22 27 23 18 15 20 32 36 32 28 18 14 9 10 8 8 3 5 7 9 6 11 17 19 21 6 8 15 9 16 6 4 13 5 11 12 12 15
11 12 12 12 12 14 21 30 27 21 19 20 29 33 30 20 15 15 10 8 5 7 9 6 10 8 8 6 6 24 19 22 19 16 9 6 16 9 14 9 9 10 12 17 18
10 11 11 12 15 19 28 30 23 18 17 22 31 31 21 7 4 14 9 13 10 6 4 3 6 8 7 2 4 6 8 14 8 10 11 7 12 7 15 18 11 18 27 27 25
10 10 11 12 18 24 29 25 18 15 12 15 24 25 8 6 3 3 5 15 24 16 4 7 11 7 4 5 1 11 12 3 10 6 9 6 12 17 9 16 13 21 26 28 27
8 10 10 13 19 25 27 21 16 15 13 8 17 16 16 7 19 6 9 15 16 10 4 8 5 3 2 5 7 10 7 4 6 8 7 6 20 14 16 6 17 24 28 28 26
5 8 12 14 18 22 21 18 13 12 14 11 14 11 12 9 3 3 4 8 10 11 11 4 4 7 4 2 11 5 2 9 6 2 13 16 23 18 26 8 20 22 25 23 20
4 7 10 14 16 18 19 16 11 9 11 9 9 5 9 12 6 4 6 4 7 8 8 7 3 10 5 8 1 5 19 15 17 6 19 9 38 37 18 13 24 27 21 18 16
5 8 10 12 12 12 14 13 9 9 4 10 5 2 10 6 6 5 3 6 5 2 2 1 1 4 13 1 12 20 16 21 27 12 6 16 24 14 4 21 27 23 21 15 13
7 9 12 13 11 7 7 9 8 6 5 7 4 12 15 5 7 4 4 3 3 2 1 3 8 9 17 24 21 19 13 15 13 13 8 20 30 26 20 24 28 19 18 13 14
10 11 12 12 10 7 7 4 3 4 5 6 13 14 14 7 6 3 0 3 2 6 14 14 16 21 9 17 17 24 22 23 23 16 21 29 35 28 36 33 32 16 10 10 11
13 13 14 11 12 8 8 2 8 10 20 13 10 5 13 8 8 4 2 6 8 9 7 6 22 18 19 12 16 20 23 27 25 20 19 29 37 38 41 37 29 15 6 8 9
14 13 12 8 8 13 10 7 7 7 9 7 6 3 8 6 11 7 3 12 8 9 9 18 9 12 9 9 17 22 28 28 23 22 31 39 44 41 38 4 7 6 9 10 13
12 12 11 11 14 12 7 5 6 5 17 13 12 15 12 9 3 10 7 7 11 11 6 19 18 6 11 18 22 23 24 25 32 35 38 40 39 31 8 5 8 13 9 13 12
8 11 10 8 6 6 1 12 7 5 11 19 22 11 13 5 11 5 6 12 9 14 12 15 16 10 18 23 15 23 20 24 34 35 30 35 38 36 15 18 23 19 16 12 13
3 6 4 3 6 9 13 12 5 6 10 29 22 12 9 13 5 14 2 8 16 17 7 10 10 17 22 14 14 26 24 32 37 39 38 40 19 7 9 17 17 26 13 11 8
4 6 4 10 7 13 13 7 3 14 6 16 13 19 21 11 9 3 7 5 11 17 18 22 9 13 16 15 14 22 28 36 42 33 23 15 9 25 27 33 20 22 24 15 19
8 9 7 1 10 18 11 7 14 14 7 12 15 14 14 10 12 5 5 11 13 13 11 4 19 8 12 21 10 21 29 23 15 21 26 18 30 38 25 14 12 21 29 26 21
8 8 9 6 13 17 7 16 16 13 3 9 4 9 18 7 16 9 11 16 14 17 19 5 12 11 12 17 23 34 18 14 35 29 40 39 36 12 11 11 13 25 24 28 24
7 1 2 14 12 12 18 16 9 10 10 8 9 20 22 12 11 6 16 10 10 10 13 15 6 5 21 20 19 19 25 16 25 32 32 27 28 44 39 33 21 25 31 17 25
5 6 7 14 15 9 16 13 6 6 11 10 20 2 13 13 7 7 8 12 3 4 10 14 22 18 4 13 33 22 22 22 16 24 34 33 43 32 36 35 38 53 62 65 32
5 13 11 16 13 19 14 10 3 7 12 9 13 9 15 13 9 17 5 16 2 5 12 20 15 20 24 30 26 20 24 26 25 20 30 35 21 45 48 31 36 46 55 51 70
8 9 19 16 22 4 8 7 4 7 4 6 11 14 15 11 16 13 8 7 8 13 19 14 13 21 34 36 9 17 24 20 15 26 26 27 34 40 28 24 18 21 25 38 43
18 7 18 13 8 6 4 6 4 9 3 7 5 4 1 12 4 11 7 18 9 12 14 16 9 17 16 12 17 15 17 24 28 27 30 30 29 35 39 41 42 42 40 28 32
16 6 10 10 10 12 9 10 10 3 3 7 8 12 12 16 14 11 10 10 7 6 8 10 11 23 21 35 34 35 33 32 29 18 32 32 44 41 35 32 33 36 42 31 17
16 8 6 11 9 15 9 6 15 8 5 7 8 6 7 9 13 19 7 11 15 15 8 7 20 27 35 37 38 39 38 34 35 35 32 37 37 31 24 22 38 41 39 47 40
17 13 12 26 12 15 9 7 11 2 7 9 13 6 12 17 18 24 24 21 16 9 10 7 9 25 36 37 30 31 39 41 38 33 34 30 32 25 29 30 29 39 49 50 52
16 14 11 11 12 13 3 6 3 7 5 5 10 14 18 13 19 25 31 29 29 22 20 16 8 17 24 23 37 29 14 19 17 20 24 23 27 26 21 28 43 51 55 61 51
Wind_Direction_500mb
54 47 49 56 63 91 119 126 124 113 99 95 112 121 113 103 87 65 55 62 66 81 53 28 200 206 200 195 247 248 251 239 138 303 98 101 281 79 292 282 31 36 35 351 342
55 57 59 58 71 102 123 128 121 106 96 113 123 126 124 119 102 64 61 41 53 81 17 230 175 195 185 186 223 251 265 60 38 16 348 9 290 349 276 214 215 319 323 321 318
60 61 71 77 92 112 128 129 115 96 96 133 138 137 133 116 222 61 40 40 60 109 12 135 160 237 186 94 259 285 13 86 125 19 310 329 239 317 296 267 37 321 312 311 305
69 66 82 96 114 126 134 131 114 91 84 145 161 155 104 282 1 23 60 53 56 40 236 190 216 215 319 94 20 120 60 335 87 149 251 269 348 287 284 316 323 300 309 306 304
79 79 91 111 127 135 140 135 119 100 81 143 194 211 246 164 77 34 65 15 35 41 83 186 199 180 31 91 133 91 111 201 167 213 255 320 264 288 271 227 295 306 308 305 303
88 86 107 123 137 146 148 143 128 102 68 88 125 135 259 99 84 52 61 43 47 48 55 110 107 34 106 91 308 79 248 182 201 192 228 275 293 257 265 222 291 301 306 298 303
111 91 106 124 136 154 159 155 143 124 71 101 127 149 11 81 139 91 49 51 34 39 40 48 79 267 172 158 328 219 240 185 215 270 289 312 273 224 236 271 293 293 303 295 288
121 119 114 118 121 147 168 172 163 168 107 142 150 340 85 121 140 103 79 20 6 352 67 303 350 136 282 263 210 236 243 254 155 153 163 246 294 89 307 275 288 296 292 280 290
95 130 125 116 109 117 153 179 193 201 203 160 197 272 129 131 141 125 78 43 61 127 272 230 236 278 204 230 224 192 328 334 317 175 306 264 299 294 286 292 290 299 264 280 298
81 123 127 107 88 107 122 126 145 180 167 171 260 245 161 150 142 180 256 35 323 248 223 233 228 235 197 336 0 345 332 321 305 332 329 305 294 303 302 293 291 284 244 279 299
78 114 123 100 72 67 147 303 202 200 204 319 99 25 122 131 139 159 242 278 293 254 339 256 258 33 30 3 336 318 304 298 296 339 298 297 296 289 295 292 280 247 288 283 305
77 106 119 92 61 68 57 297 4 349 230 194 186 214 157 139 173 160 314 270 296 334 262 237 109 72 337 299 296 296 292 296 325 326 320 303 295 294 277 260 308 314 261 280 313
76 107 110 87 70 60 52 20 329 273 258 149 181 172 152 192 60 83 298 339 292 270 343 311 74 62 291 301 310 302 312 334 314 310 288 280 292 296 99 159 194 230 244 269 311
77 115 113 88 41 350 328 343 329 249 257 138 180 158 180 207 191 328 303 304 242 324 340 285 65 299 293 292 329 310 11 309 300 301 301 312 292 284 261 190 183 232 242 311 320
44 145 132 351 20 347 313 322 254 285 258 151 142 134 191 241 49 151 287 243 276 312 246 68 280 303 304 331 334 299 327 300 287 282 289 286 253 189 246 239 249 215 214 279 304
313 198 135 2 22 351 338 302 320 235 216 148 164 203 200 189 176 128 215 257 295 285 267 279 310 288 305 316 258 301 286 291 279 259 253 303 312 289 301 315 322 297 333 329 309
318 221 201 202 320 329 323 251 244 256 108 151 201 205 240 144 201 257 294 262 304 286 225 263 259 79 293 292 298 282 316 313 298 305 294 340 322 311 328 350 356 330 310 296 326
330 228 242 323 314 319 307 243 264 34 190 44 262 222 246 138 216 256 266 259 145 306 301 288 292 188 111 314 311 299 305 293 299 312 310 306 281 322 203 171 339 295 346 338 323
27 344 306 299 312 316 269 243 350 14 24 285 220 252 214 194 270 238 244 319 35 10 325 315 268 24 262 305 311 308 279 3 289 285 280 306 321 326 44 21 330 284 229 248 304
71 226 350 324 310 293 255 272 3 17 306 247 263 359 287 173 231 189 302 95 108 336 356 323 295 276 12 298 257 227 298 302 301 295 296 303 312 290 7 329 346 7 10 350 303
22 248 355 332 291 247 265 54 146 80 324 309 297 291 276 299 287 293 292 112 26 120 303 293 267 283 283 270 315 298 267 270 286 303 305 305 294 337 322 349 357 341 342 337 311
323 279 348 337 264 298 346 15 351 289 279 271 280 288 295 332 295 283 288 52 58 331 306 30 306 293 291 290 22 289 290 296 284 292 295 294 282 291 317 16 353 327 298 310 297
345 338 350 347 320 12 97 226 308 296 31 304 265 265 46 284 305 284 288 99 43 333 348 5 273 311 290 144 181 239 275 283 289 280 276 286 286 294 321 357 345 346 344 350 335
333 318 18 43 38 324 340 260 249 101 229 274 311 255 265 253 223 269 259 138 134 295 354 253 263 254 268 300 309 296 294 291 286 273 279 277 297 301 354 338 339 332 346 351 308
6 60 359 325 23 326 282 313 275 226 227 263 203 285 321 284 294 269 284 276 264 123 207 269 268 275 280 291 292 286 281 280 277 276 276 288 295 334 330 331 330 341 346 331 320
352 342 324 278 292 273 154 172 298 124 273 165 269 65 300 285 289 299 313 302 287 204 252 247 262 290 286 277 278 297 292 285 271 267 269 293 302 19 338 329 348 329 324 323 319
349 307 300 281 248 263 64 29 328 318 172 299 330 306 280 350 331 303 292 281 272 276 276 287 300 291 283 326 317 284 297 335 315 298 290 295 301 336 347 331 328 322 322 318 315
Wind_Speed_850mb
11 12 12 12 10 10 15 22 27 23 18 15 20 32 36 32 28 18 14 9 10 8 8 3 5 7 9 6 11 17 19 21 6 8 15 9 16 6 4 13 5 11 12 12 15
11 12 12 12 12 14 21 30 27 21 19 20 29 33 30 20 15 15 10 8 5 7 9 6 10 8 8 6 6 24 19 22 19 16 9 6 16 9 14 9 9 10 12 17 18
10 11 11 12 15 19 28 30 23 18 17 22 31 31 21 7 4 14 9 13 10 6 4 3 6 8 7 2 4 6 8 14 8 10 11 7 12 7 15 18 11 18 27 27 25
10 10 11 12 18 24 29 25 18 15 12 15 24 25 8 6 3 3 5 15 24 16 4 7 11 7 4 5 1 11 12 3 10 6 9 6 12 17 9 16 13 21 26 28 27
8 10 10 13 19 25 27 21 16 15 13 8 17 16 16 7 19 6 9 15 16 10 4 8 5 3 2 5 7 10 7 4 6 8 7 6 20 14 16 6 17 24 28 28 26
5 8 12 14 18 22 21 18 13 12 14 11 14 11 12 9 3 3 4 8 10 11 11 4 4 7 4 2 11 5 2 9 6 2 13 16 23 18 26 8 20 22 25 23 20
4 7 10 14 16 18 19 16 11 9 11 9 9 5 9 12 6 4 6 4 7 8 8 7 3 10 5 8 1 5 19 15 17 6 19 9 38 37 18 13 24 27 21 18 16
5 8 10 12 12 12 14 13 9 9 4 10 5 2 10 6 6 5 3 6 5 2 2 1 1 4 13 1 12 20 16 21 27 12 6 16 24 14 4 21 27 23 21 15 13
7 9 12 13 11 7 7 9 8 6 5 7 4 12 15 5 7 4 4 3 3 2 1 3 8 9 17 24 21 19 13 15 13 13 8 20 30 26 20 24 28 19 18 13 14
10 11 12 12 10 7 7 4 3 4 5 6 13 14 14 7 6 3 0 3 2 6 14 14 16 21 9 17 17 24 22 23 23 16 21 29 35 28 36 33 32 16 10 10 11
13 13 14 11 12 8 8 2 8 10 20 13 10 5 13 8 8 4 2 6 8 9 7 6 22 18 19 12 16 20 23 27 25 20 19 29 37 38 41 37 29 15 6 8 9
14 13 12 8 8 13 10 7 7 7 9 7 6 3 8 6 11 7 3 12 8 9 9 18 9 12 9 9 17 22 28 28 23 22 31 39 44 41 38 4 7 6 9 10 13
12 12 11 11 14 12 7 5 6 5 17 13 12 15 12 9 3 10 7 7 11 11 6 19 18 6 11 18 22 23 24 25 32 35 38 40 39 31 8 5 8 13 9 13 12
8 11 10 8 6 6 1 12 7 5 11 19 22 11 13 5 11 5 6 12 9 14 12 15 16 10 18 23 15 23 20 24 34 35 30 35 38 36 15 18 23 19 16 12 13
3 6 4 3 6 9 13 12 5 6 10 29 22 12 9 13 5 14 2 8 16 17 7 10 10 17 22 14 14 26 24 32 37 39 38 40 19 7 9 17 17 26 13 11 8
4 6 4 10 7 13 13 7 3 14 6 16 13 19 21 11 9 3 7 5 11 17 18 22 9 13 16 15 14 22 28 36 42 33 23 15 9 25 27 33 20 22 24 15 19
8 9 7 1 10 18 11 7 14 14 7 12 15 14 14 10 12 5 5 11 13 13 11 4 19 8 12 21 10 21 29 23 15 21 26 18 30 38 25 14 12 21 29 26 21
8 8 9 6 13 17 7 16 16 13 3 9 4 9 18 7 16 9 11 16 14 17 19 5 12 11 12 17 23 34 18 14 35 29 40 39 36 12 11 11 13 25 24 28 24
7 1 2 14 12 12 18 16 9 10 10 8 9 20 22 12 11 6 16 10 10 10 13 15 6 5 21 20 19 19 25 16 25 32 32 27 28 44 39 33 21 25 31 17 25
5 6 7 14 15 9 16 13 6 6 11 10 20 2 13 13 7 7 8 12 3 4 10 14 22 18 4 13 33 22 22 22 16 24 34 33 43 32 36 35 38 53 62 65 32
5 13 11 16 13 19 14 10 3 7 12 9 13 9 15 13 9 17 5 16 2 5 12 20 15 20 24 30 26 20 24 26 25 20 30 35 21 45 48 31 36 46 55 51 70
8 9 19 16 22 4 8 7 4 7 4 6 11 14 15 11 16 13 8 7 8 13 19 14 13 21 34 36 9 17 24 20 15 26 26 27 34 40 28 24 18 21 25 38 43
18 7 18 13 8 6 4 6 4 9 3 7 5 4 1 12 4 11 7 18 9 12 14 16 9 17 16 12 17 15 17 24 28 27 30 30 29 35 39 41 42 42 40 28 32
16 6 10 10 10 12 9 10 10 3 3 7 8 12 12 16 14 11 10 10 7 6 8 10 11 23 21 35 34 35 33 32 29 18 32 32 44 41 35 32 33 36 42 31 17
16 8 6 11 9 15 9 6 15 8 5 7 8 6 7 9 13 19 7 11 15 15 8 7 20 27 35 37 38 39 38 34 35 35 32 37 37 31 24 22 38 41 39 47 40
17 13 12 26 12 15 9 7 11 2 7 9 13 6 12 17 18 24 24 21 16 9 10 7 9 25 36 37 30 31 39 41 38 33 34 30 32 25 29 30 29 39 49 50 52
16 14 11 11 12 13 3 6 3 7 5 5 10 14 18 13 19 25 31 29 29 22 20 16 8 17 24 23 37 29 14 19 17 20 24 23 27 26 21 28 43 51 55 61 51
Wind_Direction_850mb
54 47 49 56 63 91 119 126 124 113 99 95 112 121 113 103 87 65 55 62 66 81 53 28 200 206 200 195 247 248 251 239 138 303 98 101 281 79 292 282 31 36 35 351 342
55 57 59 58 71 102 123 128 121 106 96 113 123 126 124 119 102 64 61 41 53 81 17 230 175 195 185 186 223 251 265 60 38 16 348 9 290 349 276 214 215 319 323 321 318
60 61 71 77 92 112 128 129 115 96 96 133 138 137 133 116 222 61 40 40 60 109 12 135 160 237 186 94 259 285 13 86 125 19 310 329 239 317 296 267 37 321 312 311 305
69 66 82 96 114 126 134 131 114 91 84 145 161 155 104 282 1 23 60 53 56 40 236 190 216 215 319 94 20 120 60 335 87 149 251 269 348 287 284 316 323 300 309 306 304
79 79 91 111 127 135 140 135 119 100 81 143 194 211 246 164 77 34 65 15 35 41 83 186 199 180 31 91 133 91 111 201 167 213 255 320 264 288 271 227 295 306 308 305 303
88 86 107 123 137 146 148 143 128 102 68 88 125 135 259 99 84 52 61 43 47 48 55 110 107 34 106 91 308 79 248 182 201 192 228 275 293 257 265 222 291 301 306 298 303
111 91 106 124 136 154 159 155 143 124 71 101 127 149 11 81 139 91 49 51 34 39 40 48 79 267 172 158 328 219 240 185 215 270 289 312 273 224 236 271 293 293 303 295 288
121 119 114 118 121 147 168 172 163 168 107 142 150 340 85 121 140 103 79 20 6 352 67 303 350 136 282 263 210 236 243 254 155 153 163 246 294 89 307 275 288 296 292 280 290
95 130 125 116 109 117 153 179 193 201 203 160 197 272 129 131 141 125 78 43 61 127 272 230 236 278 204 230 224 192 328 334 317 175 306 264 299 294 286 292 290 299 264 280 298
81 123 127 107 88 107 122 126 145 180 167 171 260 245 161 150 142 180 256 35 323 248 223 233 228 235 197 336 0 345 332 321 305 332 329 305 294 303 302 293 291 284 244 279 299
78 114 123 100 72 67 147 303 202 200 204 319 99 25 122 131 139 159 242 278 293 254 339 256 258 33 30 3 336 318 304 298 296 339 298 297 296 289 295 292 280 247 288 283 305
77 106 119 92 61 68 57 297 4 349 230 194 186 214 157 139 173 160 314 270 296 334 262 237 109 72 337 299 296 296 292 296 325 326 320 303 295 294 277 260 308 314 261 280 313
76 107 110 87 70 60 52 20 329 273 258 149 181 172 152 192 60 83 298 339 292 270 343 311 74 62 291 301 310 302 312 334 314 310 288 280 292 296 99 159 194 230 244 269 311
77 115 113 88 41 350 328 343 329 249 257 138 180 158 180 207 191 328 303 304 242 324 340 285 65 299 293 292 329 310 11 309 300 301 301 312 292 284 261 190 183 232 242 311 320
44 145 132 351 20 347 313 322 254 285 258 151 142 134 191 241 49 151 287 243 276 312 246 68 280 303 304 331 334 299 327 300 287 282 289 286 253 189 246 239 249 215 214 279 304
313 198 135 2 22 351 338 302 320 235 216 148 164 203 200 189 176 128 215 257 295 285 267 279 310 288 305 316 258 301 286 291 279 259 253 303 312 289 301 315 322 297 333 329 309
318 221 201 202 320 329 323 251 244 256 108 151 201 205 240 144 201 257 294 262 304 286 225 263 259 79 293 292 298 282 316 313 298 305 294 340 322 311 328 350 356 330 310 296 326
330 228 242 323 314 319 307 243 264 34 190 44 262 222 246 138 216 256 266 259 145 306 301 288 292 188 111 314 311 299 305 293 299 312 310 306 281 322 203 171 339 295 346 338 323
27 344 306 299 312 316 269 243 350 14 24 285 220 252 214 194 270 238 244 319 35 10 325 315 268 24 262 305 311 308 279 3 289 285 280 306 321 326 44 21 330 284 229 248 304
71 226 350 324 310 293 255 272 3 17 306 247 263 359 287 173 231 189 302 95 108 336 356 323 295 276 12 298 257 227 298 302 301 295 296 303 312 290 7 329 346 7 10 350 303
22 248 355 332 291 247 265 54 146 80 324 309 297 291 276 299 287 293 292 112 26 120 303 293 267 283 283 270 315 298 267 270 286 303 305 305 294 337 322 349 357 341 342 337 311
323 279 348 337 264 298 346 15 351 289 279 271 280 288 295 332 295 283 288 52 58 331 306 30 306 293 291 290 22 289 290 296 284 292 295 294 282 291 317 16 353 327 298 310 297
345 338 350 347 320 12 97 226 308 296 31 304 265 265 46 284 305 284 288 99 43 333 348 5 273 311 290 144 181 239 275 283 289 280 276 286 286 294 321 357 345 346 344 350 335
333 318 18 43 38 324 340 260 249 101 229 274 311 255 265 253 223 269 259 138 134 295 354 253 263 254 268 300 309 296 294 291 286 273 279 277 297 301 354 338 339 332 346 351 308
6 60 359 325 23 326 282 313 275 226 227 263 203 285 321 284 294 269 284 276 264 123 207 269 268 275 280 291 292 286 281 280 277 276 276 288 295 334 330 331 330 341 346 331 320
352 342 324 278 292 273 154 172 298 124 273 165 269 65 300 285 289 299 313 302 287 204 252 247 262 290 286 277 278 297 292 285 271 267 269 293 302 19 338 329 348 329 324 323 319
349 307 300 281 248 263 64 29 328 318 172 299 330 306 280 350 331 303 292 281 272 276 276 287 300 291 283 326 317 284 297 335 315 298 290 295 301 336 347 331 328 322 322 318 315